Wind_Speed
13 14 16 19 20 23 24 28 35 31 27 31 30 35 37 31 35 36 36 39 33 29 29 32 26 20 22 23 25 29 27 25 25 26 25 20 18 18 18 19 20 21 21 20
17 20 19 20 20 23 26 27 32 31 34 28 28 35 33 32 29 35 40 31 33 31 31 29 25 25 26 27 28 27 24 22 21 20 20 19 16 16 17 17 19 20 19 19
19 22 21 23 21 24 25 25 28 31 28 28 33 30 32 31 33 39 43 43 37 34 34 34 30 27 26 27 26 24 24 22 20 18 17 19 17 15 17 18 18 18 18 18
16 17 12 15 22 22 27 23 24 27 25 22 32 21 31 31 30 26 34 41 43 42 31 30 33 33 31 31 26 25 26 26 24 23 21 21 17 17 16 19 15 16 18 21
19 23 22 19 20 20 25 23 25 27 26 28 33 22 21 25 29 29 29 36 37 32 37 39 37 33 31 30 29 30 29 30 29 25 24 21 21 16 15 16 20 16 19 18
21 20 22 22 18 19 17 25 28 27 22 23 31 28 24 22 25 28 30 37 36 33 32 32 32 32 30 28 29 28 27 29 29 23 26 27 21 18 18 20 17 16 20 20
21 22 12 18 17 19 20 20 15 18 18 20 24 28 23 14 15 10 16 22 24 21 19 22 25 22 21 20 21 25 26 24 20 22 24 24 21 20 23 23 18 18 16 16
11 16 17 8 16 19 15 18 11 18 15 20 26 28 27 28 18 10 3 7 6 10 16 17 16 17 15 16 19 21 23 20 19 19 19 19 22 21 20 19 19 16 15 15
11 10 13 20 10 18 25 10 21 26 21 14 15 32 28 35 27 23 16 10 8 4 8 10 11 12 14 15 16 21 22 19 17 18 19 21 22 22 19 22 20 18 17 16
17 19 16 11 12 18 21 17 11 11 18 19 16 22 23 15 27 16 15 14 8 6 7 5 6 8 10 13 15 17 19 19 19 21 21 21 21 21 21 20 19 19 17 14
18 15 18 12 6 15 16 15 12 17 12 10 14 13 18 24 21 19 14 15 5 2 5 3 5 7 7 11 15 18 20 21 22 22 22 22 21 20 20 20 18 17 15 15
16 7 14 21 13 17 14 17 1 8 14 15 15 15 25 16 12 24 15 11 5 6 9 8 8 3 7 14 17 20 21 22 22 22 21 21 21 21 20 18 16 14 13 12
8 6 11 17 6 8 4 15 8 8 12 17 10 6 14 21 19 15 14 10 2 10 11 12 10 2 7 16 18 21 22 22 22 22 22 22 21 20 18 16 14 13 13 12
12 14 16 16 17 6 9 17 12 9 5 15 17 10 16 11 19 13 5 4 4 12 11 12 13 4 4 16 19 20 22 22 22 23 22 22 20 18 17 15 14 13 13 13
9 11 17 20 20 19 16 13 16 17 17 18 21 14 19 25 19 11 10 13 14 14 8 10 10 4 8 5 20 21 21 22 23 23 22 20 18 16 15 14 14 14 13 12
6 11 14 19 20 19 16 18 17 18 20 23 23 22 18 17 25 20 17 18 15 11 10 10 8 3 14 7 19 23 23 23 22 22 20 19 17 16 16 17 16 14 13 12
10 7 7 13 14 11 14 13 19 18 18 20 22 20 20 17 15 13 16 17 14 11 11 9 7 6 17 18 15 23 23 23 22 20 19 18 17 15 16 16 17 14 14 14
6 13 11 12 13 9 8 12 14 16 12 7 14 21 18 20 20 24 22 19 19 11 9 9 7 6 16 21 20 21 22 22 21 20 18 17 16 14 14 16 15 14 14 15
10 4 4 4 6 14 18 14 10 6 15 20 19 18 18 26 28 24 26 23 16 14 10 8 8 4 17 23 25 22 22 22 20 19 18 16 16 14 14 15 16 15 13 13
5 5 3 6 5 5 3 4 8 10 15 5 4 7 13 16 6 3 17 13 4 3 5 7 9 5 17 25 26 23 23 22 20 19 17 16 15 14 14 15 14 12 12 11
4 3 6 11 8 8 7 7 6 4 3 9 20 21 19 9 18 29 22 18 11 11 12 11 11 9 16 27 27 24 23 22 21 19 17 15 15 15 15 13 13 14 12 11
4 4 2 3 4 3 9 14 5 11 28 30 28 25 21 22 21 26 23 20 18 17 15 12 13 11 20 29 27 24 24 22 21 19 18 16 16 16 14 13 13 12 12 12
4 3 3 3 6 18 22 11 15 28 26 28 24 25 20 21 21 22 23 20 18 18 14 13 9 16 23 30 25 26 24 23 22 20 18 17 17 16 14 13 14 13 12 10
8 14 6 10 9 20 28 20 23 28 30 31 33 30 26 24 22 22 22 19 18 16 14 14 10 21 27 29 25 25 25 24 22 20 18 16 18 17 13 14 14 11 11 12
15 10 9 15 15 27 16 27 23 35 24 24 21 21 21 21 22 22 22 18 17 14 13 11 16 23 31 29 27 25 25 25 23 20 18 16 19 13 13 11 11 10 10 11
5 8 4 6 23 22 27 26 34 15 24 29 29 27 24 23 24 21 20 17 18 19 19 12 19 26 28 28 28 25 27 26 24 21 19 19 14 15 13 9 11 13 9 12
Wind_Direction
280 268 256 261 271 267 269 270 274 265 255 249 255 233 244 235 241 253 238 241 238 236 241 239 235 229 237 240 237 245 264 267 260 255 256 247 248 239 232 225 217 210 216 210
277 261 259 262 267 268 272 274 268 267 269 276 261 253 245 239 231 238 249 241 238 239 238 238 238 240 243 245 247 255 256 253 251 250 247 238 245 236 229 218 212 205 205 207
281 289 290 281 267 250 253 264 269 270 268 259 263 262 254 245 237 230 241 246 244 238 241 242 244 246 247 248 250 252 250 247 246 250 249 248 232 213 213 210 205 202 198 204
299 291 274 283 269 258 266 263 270 270 269 257 246 251 243 244 244 230 235 241 241 243 248 248 249 251 251 252 248 246 243 247 248 250 246 233 225 218 215 207 201 193 191 210
289 292 289 277 267 263 268 271 261 262 254 259 253 250 246 241 239 236 238 240 235 237 242 246 248 249 251 250 248 243 238 238 246 237 247 227 223 218 210 197 201 187 187 189
288 290 282 267 274 275 286 282 262 251 246 243 243 248 239 230 239 236 223 227 232 235 239 245 249 251 250 251 247 238 230 236 240 231 239 221 217 199 198 187 178 175 186 177
318 292 317 249 254 264 256 260 261 245 230 240 251 238 245 221 234 284 244 233 230 235 240 243 240 243 241 244 243 233 224 225 213 214 223 209 194 192 186 186 173 173 176 177
330 309 355 350 282 271 235 294 243 249 222 235 232 234 228 248 250 135 283 280 174 210 236 241 246 245 240 240 237 224 212 199 197 198 200 188 185 184 181 169 177 173 177 180
319 308 285 289 271 271 265 213 241 265 270 295 287 225 229 226 236 245 238 196 169 223 249 254 254 250 244 239 221 210 196 188 185 177 172 173 170 173 173 175 165 168 168 177
298 296 296 319 303 254 263 271 270 286 264 259 268 270 212 191 203 196 189 186 157 224 269 275 281 255 241 224 203 186 182 179 172 166 167 164 166 164 164 166 158 161 166 168
296 300 292 235 241 284 245 257 242 251 267 292 264 253 238 199 196 199 194 122 130 320 319 330 335 288 222 189 178 169 167 165 165 164 162 162 162 164 159 153 156 161 161 170
318 288 290 285 252 236 252 253 234 250 256 247 254 297 309 135 135 185 118 105 84 343 354 359 22 345 176 169 164 160 159 162 164 163 162 160 158 156 154 153 157 162 168 174
339 291 305 292 313 148 228 296 218 252 274 268 279 272 289 119 121 125 128 114 15 345 351 7 35 50 155 161 160 157 160 162 162 162 159 156 155 156 152 154 160 166 173 171
309 274 261 277 291 152 266 294 285 280 257 280 260 211 259 159 141 142 132 39 338 322 330 10 13 39 178 162 161 160 161 162 161 160 158 156 157 156 153 158 161 167 169 168
236 265 270 273 277 275 268 263 275 274 260 269 282 318 296 310 321 355 359 315 299 308 337 1 356 85 193 164 161 161 160 162 161 159 159 157 156 152 152 157 163 166 169 170
264 274 285 284 283 276 270 256 254 261 269 269 269 269 262 244 274 301 302 287 287 297 321 326 341 123 182 158 160 161 161 161 160 159 159 156 151 150 161 161 167 167 169 171
283 272 292 279 304 298 272 283 245 242 242 252 276 281 290 276 271 284 291 295 280 282 289 301 316 308 172 176 166 164 162 161 161 160 159 154 153 163 167 167 166 168 168 177
253 268 274 271 294 262 268 335 353 323 301 221 291 290 301 297 299 289 288 278 270 278 282 290 297 296 172 172 174 166 163 163 162 160 157 157 160 162 165 169 168 171 179 173
215 240 272 265 255 275 284 304 302 338 291 306 303 285 286 293 301 295 264 266 268 263 268 276 283 278 176 174 173 171 168 166 163 161 160 163 165 168 168 174 171 184 179 178
193 211 232 261 268 271 80 61 328 337 284 65 317 293 287 301 293 270 13 340 231 232 268 279 280 333 181 177 182 173 171 168 167 165 165 166 168 169 169 169 175 174 182 176
287 177 220 246 258 268 104 307 275 259 339 298 312 301 295 276 261 305 314 310 313 295 283 275 261 261 191 179 178 175 172 171 168 167 166 166 174 166 167 165 165 170 169 167
225 290 235 250 267 303 203 313 220 313 307 302 296 289 276 271 272 278 286 287 287 288 280 264 243 221 185 181 178 175 173 170 168 167 167 156 169 161 162 165 167 166 164 160
282 295 276 218 264 309 292 341 304 307 284 291 284 281 275 281 271 265 273 277 274 272 268 251 242 192 186 179 181 174 172 170 167 166 165 160 168 168 170 162 167 162 163 162
300 298 258 293 269 307 331 324 311 307 296 289 277 272 267 266 262 256 260 260 261 258 250 234 212 187 181 178 180 175 173 171 168 166 165 161 166 165 163 175 165 170 171 171
280 314 279 285 306 322 314 315 310 309 300 292 281 263 260 256 255 249 253 256 257 251 240 213 198 187 177 175 176 174 173 171 167 165 165 165 167 162 162 160 172 168 172 177
290 285 301 285 299 315 318 339 325 321 322 311 284 267 253 249 251 252 255 243 253 246 252 226 200 179 171 175 173 173 173 170 167 165 166 169 163 167 166 162 166 179 178 172
Height
1462 1459 1453 1449 1444 1437 1434 1433 1423 1408 1405 1411 1402 1399 1396 1406 1414 1414 1411 1413 1414 1417 1423 1425 1428 1432 1437 1439 1439 1440 1442 1442 1444 1443 1444 1445 1445 1446 1445 1447 1447 1447 1447 1450
1459 1451 1448 1447 1444 1444 1439 1436 1425 1417 1409 1407 1397 1391 1383 1391 1397 1406 1407 1403 1408 1412 1415 1419 1423 1428 1431 1432 1431 1433 1434 1434 1436 1436 1437 1441 1442 1442 1442 1444 1442 1442 1443 1446
1451 1445 1443 1441 1437 1438 1433 1433 1429 1422 1414 1409 1400 1390 1381 1378 1385 1394 1399 1400 1401 1405 1410 1413 1416 1420 1423 1424 1423 1425 1427 1427 1430 1430 1432 1434 1436 1437 1438 1440 1438 1437 1440 1443
1447 1443 1440 1438 1435 1433 1430 1426 1426 1424 1423 1416 1394 1398 1382 1377 1377 1380 1388 1393 1395 1398 1401 1406 1409 1411 1413 1414 1416 1416 1420 1421 1422 1422 1425 1429 1432 1433 1433 1437 1436 1435 1438 1439
1448 1442 1435 1430 1427 1425 1422 1420 1420 1420 1420 1414 1398 1390 1371 1370 1371 1373 1377 1380 1383 1389 1396 1397 1400 1401 1404 1407 1408 1409 1412 1413 1413 1414 1419 1423 1425 1429 1431 1434 1431 1433 1435 1438
1441 1435 1430 1424 1423 1426 1424 1422 1415 1412 1410 1407 1395 1386 1369 1365 1363 1361 1363 1369 1375 1380 1385 1388 1391 1394 1394 1396 1399 1401 1401 1403 1404 1407 1411 1415 1419 1424 1428 1429 1429 1432 1433 1437
1439 1424 1420 1420 1423 1423 1425 1419 1419 1416 1402 1398 1391 1381 1371 1349 1351 1355 1356 1364 1369 1374 1378 1382 1384 1385 1384 1386 1388 1391 1392 1394 1397 1402 1404 1409 1413 1420 1423 1424 1428 1431 1433 1436
1449 1438 1432 1430 1426 1422 1418 1424 1421 1423 1402 1397 1381 1371 1361 1356 1356 1361 1362 1363 1366 1374 1377 1378 1378 1377 1376 1378 1382 1385 1388 1390 1394 1396 1401 1405 1411 1417 1420 1423 1426 1429 1432 1435
1450 1441 1436 1429 1421 1426 1412 1418 1420 1414 1415 1424 1393 1356 1358 1353 1356 1358 1360 1369 1371 1375 1376 1376 1373 1373 1373 1375 1377 1381 1383 1386 1390 1394 1400 1404 1409 1414 1418 1420 1423 1427 1430 1432
1444 1439 1432 1423 1424 1419 1414 1404 1420 1401 1407 1409 1382 1366 1344 1343 1346 1352 1359 1365 1372 1375 1373 1371 1371 1371 1370 1371 1373 1375 1378 1383 1389 1395 1400 1404 1409 1413 1415 1418 1422 1425 1428 1431
1440 1439 1426 1425 1425 1417 1406 1404 1408 1412 1400 1406 1381 1357 1334 1329 1344 1348 1353 1361 1371 1372 1369 1366 1367 1366 1365 1367 1369 1372 1377 1383 1389 1395 1399 1404 1408 1411 1414 1417 1420 1423 1426 1430
1440 1445 1431 1417 1400 1409 1408 1405 1412 1415 1392 1384 1392 1368 1330 1322 1321 1342 1357 1366 1372 1374 1368 1363 1364 1362 1362 1364 1368 1372 1377 1384 1390 1395 1399 1404 1408 1411 1413 1416 1419 1422 1426 1429
1453 1439 1435 1412 1414 1407 1410 1406 1407 1412 1421 1400 1392 1379 1337 1333 1342 1354 1362 1370 1374 1375 1369 1362 1360 1362 1361 1364 1369 1373 1379 1385 1390 1395 1400 1404 1407 1410 1412 1416 1419 1422 1425 1428
1453 1443 1440 1426 1408 1435 1434 1415 1399 1403 1422 1388 1372 1385 1357 1340 1346 1356 1363 1368 1373 1372 1367 1362 1360 1362 1363 1365 1370 1374 1380 1385 1391 1396 1400 1403 1407 1409 1411 1415 1418 1422 1425 1427
1448 1440 1430 1417 1408 1406 1400 1396 1393 1390 1386 1382 1367 1385 1388 1371 1358 1355 1364 1371 1370 1368 1364 1364 1363 1364 1364 1363 1369 1375 1380 1386 1391 1395 1399 1403 1406 1408 1411 1415 1419 1422 1424 1427
1442 1437 1426 1414 1402 1394 1393 1387 1387 1385 1382 1372 1371 1367 1366 1371 1367 1364 1366 1368 1367 1367 1367 1366 1364 1364 1365 1365 1370 1375 1381 1387 1391 1395 1399 1402 1405 1408 1412 1415 1418 1421 1424 1427
1445 1437 1429 1417 1401 1397 1390 1380 1375 1376 1376 1376 1363 1359 1359 1359 1360 1362 1364 1365 1365 1367 1368 1366 1365 1365 1365 1369 1372 1376 1381 1386 1391 1395 1398 1401 1405 1408 1411 1415 1418 1421 1423 1426
1442 1435 1428 1416 1408 1415 1383 1383 1383 1380 1378 1388 1385 1367 1366 1365 1363 1366 1364 1363 1364 1365 1366 1366 1364 1363 1364 1369 1373 1377 1381 1386 1390 1394 1397 1401 1405 1408 1412 1415 1417 1420 1422 1425
1439 1439 1433 1426 1419 1402 1395 1397 1399 1400 1389 1384 1382 1376 1372 1371 1369 1364 1363 1362 1361 1363 1364 1363 1363 1362 1364 1368 1373 1376 1381 1385 1389 1393 1397 1401 1404 1408 1411 1414 1417 1419 1421 1423
1434 1438 1436 1419 1414 1408 1403 1406 1406 1404 1391 1390 1392 1392 1390 1386 1381 1357 1359 1357 1357 1358 1360 1362 1361 1361 1363 1366 1371 1376 1380 1384 1388 1392 1397 1401 1404 1408 1411 1413 1415 1418 1421 1423
1422 1433 1429 1419 1415 1398 1404 1407 1404 1402 1390 1390 1388 1387 1384 1383 1377 1364 1366 1363 1360 1361 1360 1360 1360 1361 1361 1364 1368 1374 1380 1383 1387 1392 1397 1400 1403 1407 1410 1412 1415 1417 1420 1423
1426 1417 1412 1412 1408 1398 1399 1394 1401 1389 1386 1388 1384 1382 1381 1378 1375 1371 1368 1365 1363 1360 1357 1356 1355 1356 1360 1363 1367 1373 1379 1383 1387 1392 1396 1400 1404 1408 1410 1412 1414 1417 1419 1422
1414 1412 1415 1414 1399 1390 1390 1389 1391 1390 1383 1379 1378 1374 1371 1372 1370 1369 1365 1361 1359 1356 1354 1352 1352 1352 1358 1363 1367 1372 1378 1382 1387 1392 1396 1400 1404 1407 1410 1412 1415 1417 1419 1422
1406 1404 1404 1403 1389 1386 1382 1383 1384 1381 1375 1371 1367 1365 1366 1364 1364 1362 1360 1357 1353 1351 1349 1349 1350 1351 1356 1361 1366 1372 1378 1382 1386 1392 1397 1400 1404 1407 1409 1412 1414 1417 1419 1421
1405 1406 1400 1392 1386 1383 1380 1380 1375 1369 1363 1359 1357 1356 1354 1356 1355 1354 1351 1349 1347 1346 1344 1345 1347 1349 1355 1359 1365 1371 1377 1381 1386 1392 1397 1401 1404 1408 1410 1412 1414 1417 1418 1420
1403 1397 1397 1398 1389 1381 1375 1373 1370 1363 1358 1353 1349 1346 1345 1346 1346 1346 1345 1345 1345 1343 1340 1342 1345 1350 1354 1358 1364 1371 1376 1381 1386 1392 1396 1400 1403 1407 1409 1412 1413 1415 1417 1419